Wind_Speed
42 42 43 43 43 44 44 45 45 45 45 45 46 47 47 47 48 48 49 49 50 50 51 51 51 51 51 50 50 50 50 49 50 50 50 49 48 48
42 43 43 43 44 45 46 45 46 47 47 46 47 48 49 49 49 49 50 50 50 51 51 51 50 50 50 50 50 50 51 51 51 51 50 49 48 48
42 43 43 44 45 46 46 46 47 47 47 47 47 48 49 49 49 50 51 51 51 51 51 51 51 50 51 51 51 51 51 51 51 51 50 49 49 49
42 43 44 44 45 45 46 46 46 47 47 47 47 48 48 49 49 49 50 51 51 51 51 52 52 52 52 52 51 52 52 52 51 51 51 51 50 50
41 42 42 43 44 44 44 45 46 46 46 46 46 47 47 48 48 48 48 49 50 51 51 52 52 53 53 53 52 52 52 52 52 52 52 52 51 51
40 41 42 42 42 44 44 45 46 46 46 46 46 46 47 47 48 48 49 50 50 50 50 51 52 52 52 53 52 52 52 52 53 53 54 53 53 52
40 41 42 43 43 44 45 46 46 46 46 46 46 47 47 48 48 49 49 49 49 49 50 50 50 51 52 52 52 52 52 52 53 54 54 54 54 54
40 41 42 43 44 45 45 45 46 46 47 47 47 48 48 48 49 49 49 48 48 48 49 49 49 50 51 52 52 53 53 53 53 54 54 55 55 55
41 42 43 44 45 45 45 46 47 47 46 47 47 47 47 47 48 49 49 48 48 47 47 47 48 49 49 50 51 52 53 53 53 53 53 54 54 54
41 41 42 42 42 43 43 44 45 45 46 46 46 46 47 47 48 48 48 47 47 46 47 47 48 49 49 50 52 52 53 53 53 52 52 52 52 53
39 39 39 40 41 42 42 43 44 45 45 45 45 45 46 46 46 46 46 46 46 47 48 48 48 49 50 51 51 52 52 52 52 52 52 52 52 53
39 39 39 39 40 41 41 42 43 44 45 44 44 45 45 46 46 46 47 47 48 48 48 49 49 49 49 49 50 51 51 52 52 52 52 52 53 53
38 38 39 40 40 40 40 41 42 43 43 44 44 44 44 45 45 46 47 48 48 48 48 49 49 49 50 49 49 50 51 51 52 52 52 52 53 54
39 39 39 39 40 40 40 41 41 42 43 43 43 44 45 45 46 47 47 47 48 48 48 48 48 49 49 49 49 50 51 52 52 52 52 52 52 53
39 39 39 39 40 40 40 41 42 43 43 43 43 44 45 46 46 47 47 47 48 48 48 48 49 49 50 50 50 51 51 52 52 52 52 52 53 53
38 39 39 39 40 40 40 41 42 43 43 43 43 45 45 46 46 46 46 47 47 48 48 49 49 50 50 50 51 51 51 51 51 51 51 52 53 53
38 38 39 39 40 40 41 41 42 42 42 43 43 43 44 45 45 46 46 46 47 47 48 49 50 50 50 50 50 50 50 50 49 50 50 50 51 51
38 38 38 39 40 41 41 42 42 42 43 42 42 42 43 43 44 44 45 45 45 46 47 48 48 49 48 48 49 49 48 47 47 48 49 49 49 50
38 38 39 40 40 41 41 42 42 42 42 42 42 42 42 43 43 43 43 43 44 45 46 46 47 47 46 46 45 46 45 45 45 45 46 46 46 47
38 39 39 40 41 41 41 42 42 42 42 42 42 42 42 42 42 42 43 43 44 44 44 45 44 44 44 43 42 42 43 43 43 43 43 43 44 44
38 39 39 40 41 41 41 41 41 41 41 41 41 41 41 41 42 42 42 43 43 43 43 42 41 41 40 39 38 38 40 40 41 41 41 41 41 41
38 39 39 40 40 40 40 40 40 40 40 40 40 41 40 40 41 41 41 42 42 41 40 39 38 37 36 36 36 36 37 38 39 39 40 40 39 38
37 38 39 39 38 38 38 38 38 38 38 39 39 40 40 40 40 40 40 40 39 38 38 36 36 35 35 35 35 35 35 36 36 37 37 37 37 36
Wind_Direction
257 257 257 257 258 259 260 260 260 260 260 262 262 262 264 265 265 265 265 265 265 265 265 264 265 266 266 266 267 268 269 270 271 272 272 273 275 275
257 258 259 259 259 260 261 261 262 262 262 262 263 263 265 265 266 266 266 266 266 265 264 265 266 266 266 266 266 268 268 269 270 271 272 272 274 275
259 259 259 259 260 261 262 263 264 264 264 264 264 264 265 266 267 267 268 267 266 265 264 265 266 267 266 266 267 267 267 269 270 271 272 273 274 274
259 259 258 260 261 262 263 263 264 265 265 265 265 266 266 267 268 269 269 268 268 267 266 266 266 266 266 266 267 267 267 268 269 271 272 273 274 274
260 260 261 261 262 262 264 265 265 265 266 266 266 267 268 268 269 269 269 269 269 269 268 267 266 265 265 265 266 267 268 269 269 270 271 273 274 275
262 261 261 262 263 262 264 265 266 266 266 266 266 267 268 269 269 269 269 269 270 270 270 269 267 266 265 265 266 267 268 268 269 270 271 273 273 275
263 263 263 263 264 265 266 266 267 267 268 268 267 267 268 269 269 270 270 270 270 270 270 270 269 267 266 266 266 267 268 269 270 270 272 273 273 274
264 264 264 265 266 267 267 267 267 267 268 268 268 268 268 268 269 270 270 271 271 270 270 270 269 268 267 266 266 266 267 269 270 271 272 273 273 274
265 266 265 266 267 268 268 267 267 268 269 269 269 269 270 269 270 270 270 271 272 271 270 270 269 269 268 267 267 268 268 268 270 271 273 273 274 274
268 269 268 268 269 269 269 269 270 270 270 270 270 271 270 270 270 270 270 271 271 270 270 271 271 270 269 269 268 268 268 268 269 271 272 274 274 274
268 269 269 269 270 270 270 270 271 271 271 272 272 272 271 270 270 270 270 270 271 271 272 272 272 271 270 269 268 267 267 268 270 271 272 273 274 275
268 269 269 270 270 270 270 271 271 271 270 270 272 272 271 271 271 271 272 272 272 272 273 273 272 272 270 269 269 267 267 268 269 271 272 274 275 276
269 270 270 271 271 272 272 272 272 271 271 271 272 272 272 272 272 273 274 273 273 273 273 272 272 272 271 269 269 268 268 269 270 272 273 274 275 276
269 270 271 272 273 273 273 274 273 273 272 272 273 273 273 274 274 274 275 275 274 273 273 273 273 273 272 272 270 269 269 271 272 273 274 274 275 276
268 270 271 272 273 274 275 275 274 274 275 275 275 275 275 275 275 276 276 275 275 275 274 273 274 274 274 274 272 271 271 272 273 273 273 274 275 276
269 270 270 272 274 275 275 276 276 276 276 277 276 275 275 276 276 276 275 275 275 275 275 274 275 275 275 275 274 273 272 272 273 272 273 273 274 275
271 271 272 274 275 276 277 277 278 278 278 278 278 277 276 276 277 277 277 276 275 276 276 276 277 277 277 276 274 274 274 273 273 273 274 274 274 275
272 273 274 275 276 277 279 279 279 279 279 279 279 279 279 278 278 277 277 277 277 277 277 277 277 277 277 276 276 275 274 274 274 274 275 275 276 276
273 274 275 276 277 279 279 280 279 279 279 279 279 280 280 279 279 278 278 278 279 279 279 278 277 277 276 276 275 274 274 274 274 275 276 277 278 278
274 275 275 277 278 279 280 280 279 279 279 279 280 280 280 280 280 280 279 279 280 280 280 279 277 277 277 276 274 273 274 275 275 276 278 278 279 280
274 275 276 278 279 279 279 279 279 279 279 279 280 280 280 280 280 280 280 280 281 281 280 278 278 277 276 275 274 274 275 276 277 278 279 280 280 281
274 275 277 278 279 279 279 279 279 279 279 280 280 280 280 280 280 280 280 281 281 280 279 277 276 275 274 274 275 275 275 277 279 281 281 281 283 283
276 277 278 279 279 280 280 279 280 280 280 281 281 281 281 280 280 280 281 281 280 279 277 275 274 273 273 274 275 276 276 277 278 280 281 283 284 285
Height
5684 5686 5688 5690 5691 5693 5694 5695 5697 5699 5701 5701 5701 5701 5702 5703 5703 5704 5704 5705 5706 5707 5707 5708 5709 5710 5711 5712 5713 5713 5713 5714 5715 5715 5715 5715 5714 5714
5674 5676 5677 5678 5680 5681 5683 5683 5684 5686 5687 5689 5689 5689 5689 5690 5690 5691 5691 5692 5692 5693 5694 5695 5695 5696 5697 5698 5699 5700 5701 5701 5702 5702 5702 5702 5701 5701
5663 5664 5666 5667 5668 5670 5670 5671 5672 5673 5674 5676 5676 5676 5676 5677 5677 5677 5677 5678 5679 5679 5680 5681 5682 5682 5683 5685 5686 5687 5687 5688 5688 5688 5689 5688 5688 5688
5651 5652 5654 5655 5657 5657 5658 5659 5659 5660 5660 5662 5662 5662 5663 5663 5663 5663 5663 5663 5664 5665 5666 5667 5668 5668 5669 5670 5672 5673 5674 5674 5675 5675 5675 5676 5675 5674
5640 5641 5642 5643 5644 5645 5646 5647 5647 5647 5647 5648 5649 5649 5649 5649 5649 5650 5649 5649 5650 5650 5651 5652 5653 5654 5655 5656 5657 5658 5659 5660 5661 5661 5661 5661 5661 5660
5629 5630 5631 5631 5632 5633 5634 5634 5634 5634 5634 5635 5636 5636 5636 5636 5636 5636 5636 5636 5636 5636 5636 5637 5637 5638 5640 5641 5643 5644 5645 5646 5646 5647 5647 5647 5647 5646
5618 5619 5619 5619 5620 5621 5621 5621 5621 5622 5622 5622 5623 5623 5623 5623 5623 5622 5622 5622 5622 5622 5622 5623 5623 5624 5625 5626 5628 5629 5630 5631 5632 5632 5632 5632 5632 5631
5607 5607 5608 5608 5608 5608 5608 5609 5609 5609 5609 5609 5610 5610 5610 5609 5609 5608 5609 5609 5610 5609 5609 5609 5609 5610 5610 5611 5613 5614 5615 5616 5617 5617 5617 5617 5616 5616
5595 5595 5596 5596 5596 5596 5596 5596 5596 5596 5596 5597 5597 5597 5597 5596 5596 5596 5595 5595 5596 5596 5595 5596 5595 5596 5596 5597 5598 5599 5600 5600 5601 5601 5602 5601 5601 5600
5583 5583 5583 5583 5583 5583 5583 5583 5583 5583 5583 5583 5584 5584 5583 5582 5582 5582 5582 5582 5583 5582 5582 5583 5583 5582 5582 5582 5583 5584 5584 5585 5585 5586 5586 5586 5585 5585
5571 5571 5571 5571 5571 5571 5571 5571 5571 5571 5570 5570 5570 5570 5569 5569 5569 5568 5569 5569 5570 5570 5569 5569 5569 5569 5568 5568 5568 5568 5569 5569 5570 5571 5571 5570 5570 5569
5559 5559 5559 5559 5559 5558 5558 5558 5559 5558 5558 5557 5557 5557 5556 5556 5555 5555 5555 5555 5555 5556 5555 5554 5554 5553 5554 5554 5553 5553 5554 5554 5555 5555 5555 5555 5554 5553
5548 5548 5548 5547 5547 5546 5546 5546 5546 5545 5545 5545 5544 5544 5543 5543 5542 5541 5541 5541 5541 5541 5541 5540 5540 5538 5538 5540 5540 5539 5539 5539 5540 5540 5539 5539 5538 5537
5536 5537 5536 5536 5535 5535 5534 5534 5534 5533 5533 5532 5532 5531 5531 5530 5529 5528 5527 5526 5526 5526 5526 5525 5525 5524 5524 5525 5526 5525 5525 5524 5525 5525 5524 5523 5522 5521
5524 5525 5525 5524 5524 5523 5523 5522 5521 5521 5521 5520 5519 5519 5518 5517 5516 5514 5513 5512 5512 5511 5511 5511 5510 5510 5509 5510 5510 5510 5510 5510 5509 5509 5508 5508 5507 5506
5513 5513 5513 5513 5512 5512 5511 5510 5509 5509 5508 5507 5507 5506 5504 5503 5502 5501 5500 5499 5498 5498 5497 5496 5495 5495 5495 5494 5494 5495 5494 5495 5495 5493 5493 5493 5491 5490
5501 5501 5501 5501 5501 5500 5500 5499 5498 5497 5495 5494 5493 5492 5491 5490 5489 5488 5487 5485 5485 5484 5483 5482 5480 5480 5479 5479 5479 5479 5479 5479 5479 5478 5478 5478 5476 5474
5489 5489 5490 5489 5489 5488 5488 5486 5485 5484 5483 5482 5481 5480 5478 5477 5476 5474 5473 5472 5471 5470 5469 5468 5467 5466 5465 5464 5464 5464 5464 5464 5464 5463 5462 5462 5462 5460
5478 5478 5478 5477 5477 5476 5475 5474 5473 5471 5470 5469 5468 5467 5465 5464 5463 5462 5460 5459 5458 5457 5455 5454 5453 5452 5452 5452 5451 5449 5449 5450 5449 5449 5448 5447 5447 5446
5466 5466 5466 5465 5464 5463 5462 5461 5460 5458 5457 5456 5455 5454 5453 5451 5450 5449 5447 5446 5445 5443 5442 5440 5439 5438 5438 5438 5438 5437 5435 5436 5436 5435 5435 5433 5433 5431
5455 5454 5454 5453 5452 5451 5449 5448 5447 5446 5445 5444 5443 5441 5440 5439 5437 5436 5434 5433 5432 5430 5429 5427 5426 5425 5424 5424 5425 5425 5424 5423 5423 5422 5422 5421 5420 5419
5443 5442 5442 5440 5439 5438 5436 5435 5434 5433 5433 5431 5430 5429 5428 5426 5425 5423 5422 5420 5419 5417 5416 5415 5414 5413 5413 5413 5413 5413 5413 5412 5410 5409 5409 5408 5407 5407
5431 5431 5430 5429 5427 5426 5425 5424 5423 5422 5421 5419 5418 5417 5415 5414 5413 5411 5409 5408 5406 5405 5404 5403 5403 5402 5402 5402 5402 5402 5402 5401 5400 5398 5397 5396 5395 5394